This is the latest recevied weather packets stored in our database for station/object VE9LJW. If no packets are shown the sender has not sent any weather packets the latest 10 day(s).
| Time | Temp. | Humidity | Pressure | Rain* | Wind** | Luminosity | Snow |
|---|---|---|---|---|---|---|---|
| 1777417463 | 17.78° C | 31% | 1019.3 hPa | 0 mm | - | 11 W/m² | - |
| 1777417160 | 17.78° C | 32% | 1019.5 hPa | 0 mm | - | 15 W/m² | - |
| 1777416855 | 17.78° C | 30% | 1019.1 hPa | 0 mm | - | 17 W/m² | - |
| 1777416551 | 18.33° C | 30% | 1019.2 hPa | 0 mm | - | 20 W/m² | - |
| 1777416247 | 18.33° C | 30% | 1019.2 hPa | 0 mm | - | 23 W/m² | - |
| 1777415941 | 18.89° C | 31% | 1019 hPa | 0 mm | - | 32 W/m² | - |
| 1777415637 | 18.89° C | 29% | 1019.2 hPa | 0 mm | - | 44 W/m² | - |
| 1777415333 | 19.44° C | 30% | 1018.9 hPa | 0 mm | - | 57 W/m² | - |
| 1777415028 | 18.89° C | 28% | 1019.1 hPa | 0 mm | - | 76 W/m² | - |
| 1777414727 | 19.44° C | 28% | 1019.1 hPa | 0 mm | - | 64 W/m² | - |
| 1777414424 | 19.44° C | 29% | 1019.2 hPa | 0 mm | - | 69 W/m² | - |
| 1777414122 | 19.44° C | 27% | 1018.9 hPa | 0 mm | - | 46 W/m² | - |
| 1777413817 | 20° C | 28% | 1019.1 hPa | 0 mm | - | 66 W/m² | - |
| 1777413507 | 20° C | 27% | 1019.2 hPa | 0 mm | - | 61 W/m² | - |
| 1777413203 | 20° C | 28% | 1018.8 hPa | 0 mm | - | 78 W/m² | - |
| 1777412899 | 20° C | 28% | 1018.9 hPa | 0 mm | - | 84 W/m² | - |
| 1777412593 | 20° C | 26% | 1019 hPa | 0 mm | - | 72 W/m² | - |
| 1777412289 | 20° C | 28% | 1019 hPa | 0 mm | - | 57 W/m² | - |
| 1777411985 | 20.56° C | 25% | 1018.9 hPa | 0 mm | - | 91 W/m² | - |
| 1777411685 | 20° C | 25% | 1018.8 hPa | 0 mm | - | 120 W/m² | - |
| 1777411379 | 20° C | 24% | 1019.1 hPa | 0 mm | - | 160 W/m² | - |
| 1777411074 | 20.56° C | 23% | 1019.2 hPa | 0 mm | - | 77 W/m² | - |
| 1777410770 | 20.56° C | 23% | 1019.1 hPa | 0 mm | - | 92 W/m² | - |
| 1777410468 | 20.56° C | 24% | 1019.1 hPa | 0 mm | - | 91 W/m² | - |
| 1777410168 | 20.56° C | 23% | 1019 hPa | 0 mm | - | 83 W/m² | - |
* Rain latest hour (hover to see other rain measurements)
** Current wind speed in m/s (hover to see current wind gust speed)